User: anonymous   Login
Location: Unspecified
(0.0000°N, 0.0000°E)
Time: 15:31:50
(UTC+02:00)
Language:

ITAMSAT 1 - Orbit

View from above orbital plane
View from above orbital plane
View from above satellite
View from above satellite

Ground track
Ground track

The orbit data is extracted from the following two-line orbital elements,

1 22826U 93061D   16208.02490860  .00000020  00000-0  25297-4 0  9996
2 22826  98.7565 164.6379 0008632 188.2103 171.8939 14.30287507190959
Epoch (UTC): 26 July 2016 00:35:52
Eccentricity: 0.0008632
inclination: 98.7565°
perigee height: 784 km
apogee height: 797 km
right ascension of ascending node: 164.6379°
argument of perigee: 188.2103°
revolutions per day: 14.30287507
mean anomaly at epoch: 171.8939°
orbit number at epoch: 19095

The dashed part of the orbit path shows where the satellite is in the earth's shadow,  

DLR